Location: Comstock Ranch
(38.0499°N, 120.2627°W)
Time: 21:02:56
(UTC+00:00)

Cosmos 1821 Rocket - Pass Details

Date: 08 September 2024
Orbit: 943 x 1004 km, 82.9° (Epoch: 10 October)

Event Time Altitude Azimuth Distance (km) Brightness Sun altitude
Rises 12:07:52 0° 344° (NNW) 3,622 7.1 -17.8°
Reaches altitude 10° 12:10:30 10° 337° (NNW) 2,670 6.3 -17.4°
Maximum altitude 12:16:04 39° 271° (W) 1,383 4.3 -16.3°
Drops below altitude 10° 12:21:37 10° 204° (SSW) 2,658 5.9 -15.3°
Enters shadow 12:22:09 - 203° (SSW) 2,845 6.0 -15.2°
